Time,TemperatureF,DewpointF,PressureIn,WindDirection,WindDirectionDegrees,WindSpeedMPH,WindSpeedGustMPH,Humidity,HourlyPrecipIn,Conditions,Clouds,dailyrainin,SoftwareType,DateUTC
2013-02-23 00:11:00,30.5,25.0,30.13,West,276,0.0,0.0,81,0.00,,,0.00,weatherlink.com 1.10,2013-02-23 05:11:00,
2013-02-23 00:26:00,30.1,26.0,30.13,West,276,0.0,0.0,83,0.00,,,0.00,weatherlink.com 1.10,2013-02-23 05:26:00,
2013-02-23 00:41:00,30.5,26.0,30.14,West,276,0.0,1.0,84,0.00,,,0.00,weatherlink.com 1.10,2013-02-23 05:41:00,
2013-02-23 00:56:00,31.2,28.0,30.13,West,276,0.0,1.0,87,0.00,,,0.00,weatherlink.com 1.10,2013-02-23 05:56:00,
2013-02-23 01:11:00,31.8,28.0,30.13,West,276,0.0,1.0,84,0.00,,,0.00,weatherlink.com 1.10,2013-02-23 06:11:00,
2013-02-23 01:26:00,31.3,26.0,30.13,West,276,0.0,0.0,80,0.00,,,0.00,weatherlink.com 1.10,2013-02-23 06:26:00,
2013-02-23 01:42:00,32.0,27.0,30.13,West,276,0.0,0.0,83,0.00,,,0.00,weatherlink.com 1.10,2013-02-23 06:42:00,
2013-02-23 01:56:00,30.8,26.0,30.13,West,276,0.0,1.0,82,0.00,,,0.00,weatherlink.com 1.10,2013-02-23 06:56:00,
2013-02-23 02:12:00,30.4,26.0,30.12,West,276,0.0,1.0,84,0.00,,,0.00,weatherlink.com 1.10,2013-02-23 07:12:00,
2013-02-23 02:26:00,30.4,26.0,30.11,West,276,0.0,1.0,84,0.00,,,0.00,weatherlink.com 1.10,2013-02-23 07:26:00,
2013-02-23 02:41:00,30.7,26.0,30.11,West,276,0.0,0.0,84,0.00,,,0.00,weatherlink.com 1.10,2013-02-23 07:41:00,
2013-02-23 02:56:00,30.6,26.0,30.10,West,276,0.0,0.0,83,0.00,,,0.00,weatherlink.com 1.10,2013-02-23 07:56:00,
2013-02-23 03:12:00,30.6,26.0,30.09,South,188,0.0,1.0,83,0.00,,,0.00,weatherlink.com 1.10,2013-02-23 08:12:00,
2013-02-23 03:27:00,30.6,26.0,30.08,South,188,0.0,0.0,84,0.00,,,0.00,weatherlink.com 1.10,2013-02-23 08:27:00,
2013-02-23 03:42:00,30.5,26.0,30.08,South,188,0.0,0.0,84,0.00,,,0.00,weatherlink.com 1.10,2013-02-23 08:42:00,
2013-02-23 03:57:00,30.5,26.0,30.08,South,188,0.0,0.0,84,0.00,,,0.00,weatherlink.com 1.10,2013-02-23 08:57:00,
2013-02-23 04:12:00,30.6,26.0,30.08,South,188,0.0,0.0,84,0.00,,,0.00,weatherlink.com 1.10,2013-02-23 09:12:00,
2013-02-23 04:27:00,31.6,28.0,30.09,South,188,0.0,0.0,87,0.00,,,0.00,weatherlink.com 1.10,2013-02-23 09:27:00,
2013-02-23 04:42:00,32.3,27.0,30.09,South,188,0.0,0.0,82,0.00,,,0.00,weatherlink.com 1.10,2013-02-23 09:42:00,
2013-02-23 04:57:00,31.4,27.0,30.08,South,188,0.0,0.0,82,0.00,,,0.00,weatherlink.com 1.10,2013-02-23 09:57:00,
2013-02-23 05:12:00,31.0,26.0,30.07,South,189,0.0,0.0,83,0.00,,,0.00,weatherlink.com 1.10,2013-02-23 10:12:00,
2013-02-23 05:27:00,31.1,27.0,30.07,South,188,0.0,0.0,85,0.00,,,0.00,weatherlink.com 1.10,2013-02-23 10:27:00,
2013-02-23 05:42:00,31.2,27.0,30.07,South,188,0.0,0.0,84,0.00,,,0.00,weatherlink.com 1.10,2013-02-23 10:42:00,
2013-02-23 05:57:00,31.2,27.0,30.06,South,188,0.0,0.0,85,0.00,,,0.00,weatherlink.com 1.10,2013-02-23 10:57:00,
2013-02-23 06:12:00,31.4,27.0,30.05,SW,225,0.0,3.0,85,0.00,,,0.00,weatherlink.com 1.10,2013-02-23 11:12:00,
2013-02-23 06:27:00,31.5,28.0,30.05,South,172,0.0,0.0,86,0.00,,,0.00,weatherlink.com 1.10,2013-02-23 11:27:00,
2013-02-23 06:42:00,31.7,28.0,30.06,South,173,0.0,0.0,87,0.00,,,0.00,weatherlink.com 1.10,2013-02-23 11:42:00,
2013-02-23 06:57:00,31.9,29.0,30.06,South,174,0.0,0.0,87,0.00,,,0.00,weatherlink.com 1.10,2013-02-23 11:57:00,
2013-02-23 07:12:00,32.1,29.0,30.06,South,173,0.0,0.0,88,0.00,,,0.00,weatherlink.com 1.10,2013-02-23 12:12:00,
2013-02-23 07:27:00,32.5,29.0,30.05,SSE,158,0.0,0.0,88,0.00,,,0.00,weatherlink.com 1.10,2013-02-23 12:27:00,
2013-02-23 07:42:00,33.1,30.0,30.06,West,269,1.0,2.0,88,0.00,,,0.00,weatherlink.com 1.10,2013-02-23 12:42:00,
2013-02-23 07:57:00,33.9,31.0,30.06,SW,222,1.0,3.0,88,0.00,,,0.00,weatherlink.com 1.10,2013-02-23 12:57:00,
2013-02-23 08:12:00,34.4,31.0,30.06,SW,222,3.0,5.0,87,0.00,,,0.00,weatherlink.com 1.10,2013-02-23 13:12:00,
2013-02-23 08:27:00,34.7,31.0,30.05,West,271,1.0,6.0,86,0.00,,,0.00,weatherlink.com 1.10,2013-02-23 13:27:00,
2013-02-23 08:42:00,35.1,31.0,30.04,SW,221,0.0,5.0,86,0.00,,,0.00,weatherlink.com 1.10,2013-02-23 13:42:00,
2013-02-23 08:57:00,35.5,32.0,30.03,WNW,301,1.0,7.0,86,0.00,,,0.00,weatherlink.com 1.10,2013-02-23 13:57:00,
2013-02-23 09:12:00,35.8,32.0,30.03,SW,231,1.0,8.0,85,0.00,,,0.00,weatherlink.com 1.10,2013-02-23 14:12:00,
2013-02-23 09:27:00,36.0,32.0,30.03,WSW,252,4.0,9.0,85,0.00,,,0.00,weatherlink.com 1.10,2013-02-23 14:27:00,
2013-02-23 09:42:00,36.1,32.0,30.02,SSW,209,4.0,8.0,84,0.00,,,0.00,weatherlink.com 1.10,2013-02-23 14:42:00,
2013-02-23 09:57:00,36.2,32.0,30.02,West,264,3.0,6.0,83,0.00,,,0.00,weatherlink.com 1.10,2013-02-23 14:57:00,
2013-02-23 10:12:00,36.4,31.0,30.02,SW,233,4.0,9.0,82,0.00,,,0.00,weatherlink.com 1.10,2013-02-23 15:12:00,
2013-02-23 10:27:00,36.5,32.0,30.02,West,263,8.0,9.0,82,0.00,,,0.00,weatherlink.com 1.10,2013-02-23 15:27:00,
2013-02-23 10:42:00,36.6,31.0,30.01,SW,225,3.0,8.0,81,0.00,,,0.00,weatherlink.com 1.10,2013-02-23 15:42:00,
2013-02-23 10:57:00,36.6,31.0,29.99,West,273,1.0,12.0,81,0.00,,,0.00,weatherlink.com 1.10,2013-02-23 15:57:00,
2013-02-23 11:14:00,36.8,32.0,29.99,West,281,0.0,9.0,81,0.00,,,0.00,weatherlink.com 1.10,2013-02-23 16:14:00,
2013-02-23 11:27:00,37.1,31.0,29.98,WSW,245,5.0,8.0,79,0.00,,,0.00,weatherlink.com 1.10,2013-02-23 16:27:00,
2013-02-23 11:42:00,37.5,31.0,29.98,SW,229,4.0,10.0,77,0.00,,,0.00,weatherlink.com 1.10,2013-02-23 16:42:00,
2013-02-23 11:57:00,37.5,32.0,29.97,WNW,287,4.0,8.0,79,0.00,,,0.00,weatherlink.com 1.10,2013-02-23 16:57:00,
2013-02-23 12:13:00,38.0,31.0,29.96,WSW,245,4.0,8.0,77,0.00,,,0.00,weatherlink.com 1.10,2013-02-23 17:13:00,
2013-02-23 12:28:00,37.7,31.0,29.97,West,267,4.0,11.0,78,0.00,,,0.00,weatherlink.com 1.10,2013-02-23 17:28:00,
2013-02-23 12:43:00,37.6,31.0,29.96,SSW,192,6.0,11.0,78,0.00,,,0.00,weatherlink.com 1.10,2013-02-23 17:43:00,
2013-02-23 12:58:00,37.6,31.0,29.96,SSW,203,3.0,13.0,78,0.00,,,0.00,weatherlink.com 1.10,2013-02-23 17:58:00,
2013-02-23 13:13:00,37.2,32.0,29.95,SW,231,3.0,11.0,80,0.00,,,0.00,weatherlink.com 1.10,2013-02-23 18:13:00,
2013-02-23 13:28:00,37.0,32.0,29.94,SW,235,4.0,9.0,81,0.00,,,0.00,weatherlink.com 1.10,2013-02-23 18:28:00,
2013-02-23 13:43:00,36.9,32.0,29.93,NW,308,3.0,9.0,81,0.00,,,0.00,weatherlink.com 1.10,2013-02-23 18:43:00,
2013-02-23 13:58:00,37.0,32.0,29.93,East,86,4.0,8.0,82,0.00,,,0.00,weatherlink.com 1.10,2013-02-23 18:58:00,
2013-02-23 14:13:00,36.9,32.0,29.93,SW,222,1.0,9.0,82,0.00,,,0.00,weatherlink.com 1.10,2013-02-23 19:13:00,
2013-02-23 14:28:00,36.7,32.0,29.93,SW,217,5.0,10.0,82,0.00,,,0.00,weatherlink.com 1.10,2013-02-23 19:28:00,
2013-02-23 14:43:00,36.5,32.0,29.93,SSW,203,2.0,6.0,83,0.00,,,0.00,weatherlink.com 1.10,2013-02-23 19:43:00,
2013-02-23 14:58:00,35.9,32.0,29.93,SSW,204,3.0,7.0,86,0.00,,,0.00,weatherlink.com 1.10,2013-02-23 19:58:00,
2013-02-23 15:13:00,34.8,32.0,29.92,WSW,240,5.0,7.0,89,0.00,,,0.00,weatherlink.com 1.10,2013-02-23 20:13:00,
2013-02-23 15:28:00,34.1,32.0,29.90,SW,218,4.0,7.0,91,0.01,,,0.01,weatherlink.com 1.10,2013-02-23 20:28:00,
2013-02-23 15:43:00,34.2,32.0,29.90,SW,224,2.0,7.0,92,0.02,,,0.02,weatherlink.com 1.10,2013-02-23 20:43:00,
2013-02-23 15:58:00,34.3,32.0,29.90,SW,226,4.0,8.0,92,0.02,,,0.02,weatherlink.com 1.10,2013-02-23 20:58:00,
2013-02-23 16:13:00,34.1,32.0,29.89,SSW,212,1.0,7.0,92,0.02,,,0.02,weatherlink.com 1.10,2013-02-23 21:13:00,
2013-02-23 16:28:00,33.7,32.0,29.88,South,184,2.0,6.0,93,0.01,,,0.02,weatherlink.com 1.10,2013-02-23 21:28:00,
2013-02-23 16:43:00,33.5,32.0,29.88,SSE,151,0.0,7.0,93,0.00,,,0.02,weatherlink.com 1.10,2013-02-23 21:43:00,
2013-02-23 16:58:00,33.3,32.0,29.88,SSE,155,0.0,3.0,93,0.00,,,0.02,weatherlink.com 1.10,2013-02-23 21:58:00,
2013-02-23 17:13:00,33.1,32.0,29.87,SW,215,2.0,5.0,94,0.00,,,0.02,weatherlink.com 1.10,2013-02-23 22:13:00,
2013-02-23 17:28:00,32.9,31.0,29.86,South,181,3.0,4.0,94,0.01,,,0.03,weatherlink.com 1.10,2013-02-23 22:28:00,
2013-02-23 17:43:00,32.9,32.0,29.85,SSE,159,3.0,4.0,95,0.01,,,0.03,weatherlink.com 1.10,2013-02-23 22:43:00,
2013-02-23 17:58:00,32.8,32.0,29.85,SSE,153,2.0,5.0,95,0.02,,,0.04,weatherlink.com 1.10,2013-02-23 22:58:00,
2013-02-23 18:13:00,32.7,32.0,29.85,South,172,3.0,5.0,95,0.02,,,0.04,weatherlink.com 1.10,2013-02-23 23:13:00,
2013-02-23 18:28:00,32.7,32.0,29.84,SSE,155,1.0,6.0,95,0.03,,,0.06,weatherlink.com 1.10,2013-02-23 23:28:00,
2013-02-23 18:43:00,32.8,32.0,29.84,SE,129,1.0,5.0,95,0.04,,,0.07,weatherlink.com 1.10,2013-02-23 23:43:00,
2013-02-23 18:58:00,32.9,32.0,29.83,SSE,165,2.0,6.0,95,0.05,,,0.09,weatherlink.com 1.10,2013-02-23 23:58:00,
2013-02-23 19:13:00,32.9,32.0,29.83,South,183,3.0,6.0,95,0.08,,,0.12,weatherlink.com 1.10,2013-02-24 00:13:00,
2013-02-23 19:28:00,33.1,32.0,29.82,SSE,160,2.0,6.0,95,0.09,,,0.15,weatherlink.com 1.10,2013-02-24 00:28:00,
2013-02-23 19:43:00,33.1,32.0,29.81,SSE,162,2.0,8.0,96,0.10,,,0.17,weatherlink.com 1.10,2013-02-24 00:43:00,
2013-02-23 19:58:00,33.2,32.0,29.80,South,169,4.0,5.0,96,0.10,,,0.19,weatherlink.com 1.10,2013-02-24 00:58:00,
2013-02-23 20:13:00,33.3,32.0,29.79,SSE,165,4.0,7.0,96,0.07,,,0.19,weatherlink.com 1.10,2013-02-24 01:13:00,
2013-02-23 20:28:00,33.3,32.0,29.80,SE,140,5.0,6.0,96,0.04,,,0.19,weatherlink.com 1.10,2013-02-24 01:28:00,
2013-02-23 20:43:00,33.3,32.0,29.80,SSE,164,3.0,6.0,96,0.03,,,0.20,weatherlink.com 1.10,2013-02-24 01:43:00,
2013-02-23 20:58:00,33.3,32.0,29.78,SE,126,4.0,7.0,96,0.02,,,0.21,weatherlink.com 1.10,2013-02-24 01:58:00,
2013-02-23 21:14:00,33.3,32.0,29.77,SE,135,4.0,7.0,96,0.02,,,0.21,weatherlink.com 1.10,2013-02-24 02:14:00,
2013-02-23 21:29:00,32.9,32.0,29.76,SSE,148,4.0,7.0,96,0.03,,,0.22,weatherlink.com 1.10,2013-02-24 02:29:00,
2013-02-23 21:44:00,32.8,32.0,29.75,SE,124,5.0,7.0,96,0.02,,,0.22,weatherlink.com 1.10,2013-02-24 02:44:00,
2013-02-23 21:59:00,32.8,32.0,29.74,SSE,160,4.0,9.0,97,0.02,,,0.23,weatherlink.com 1.10,2013-02-24 02:59:00,
2013-02-23 22:14:00,32.8,32.0,29.72,SE,146,6.0,9.0,97,0.02,,,0.23,weatherlink.com 1.10,2013-02-24 03:14:00,
2013-02-23 22:29:00,32.9,32.0,29.71,South,183,7.0,10.0,97,0.02,,,0.24,weatherlink.com 1.10,2013-02-24 03:29:00,
2013-02-23 22:44:00,33.0,32.0,29.70,SE,142,6.0,10.0,97,0.02,,,0.24,weatherlink.com 1.10,2013-02-24 03:44:00,
2013-02-23 22:59:00,33.1,32.0,29.69,South,177,7.0,9.0,97,0.02,,,0.25,weatherlink.com 1.10,2013-02-24 03:59:00,
2013-02-23 23:14:00,33.3,33.0,29.68,SE,134,6.0,10.0,97,0.01,,,0.25,weatherlink.com 1.10,2013-02-24 04:14:00,
2013-02-23 23:29:00,33.5,33.0,29.67,SSE,162,5.0,12.0,97,0.01,,,0.25,weatherlink.com 1.10,2013-02-24 04:29:00,
2013-02-23 23:44:00,33.6,33.0,29.66,SSE,153,9.0,10.0,97,0.01,,,0.25,weatherlink.com 1.10,2013-02-24 04:44:00,
2013-02-23 23:59:00,33.7,33.0,29.66,SE,132,6.0,11.0,97,0.01,,,0.26,weatherlink.com 1.10,2013-02-24 04:59:00,